Location: Champignolles
(47.0543°N, 4.5663°E)
Time: 20:20:44
(UTC+00:00)

H-2A R/B - Pass Details

Date: 30 November 2020
Orbit: 734 x 836 km, 98.2° (Epoch: 27 January)

Event Time Altitude Azimuth Distance (km) Brightness Sun altitude
Enters shadow 19:40:00 - 200° (SSW) 3,348 5.4 -37.6°
Exits shadow 19:47:17 24° 271° (W) 1,608 4.1 -38.8°
Drops below altitude 10° 19:51:10 10° 321° (NW) 2,338 4.9 -39.5°
Sets 19:53:55 0° 335° (NNW) 3,253 5.6 -39.9°
